Location: *
(35.2348°S, 91.3916°E)
Time: 01:18:04
(UTC+00:00)

Cosmos 2227 Rocket - Pass Details

Date: 23 October 2019
Orbit: 838 x 846 km, 71.0° (Epoch: 21 November)

Event Time Altitude Azimuth Distance (km) Brightness Sun altitude
Exits shadow 19:49:05 22° 206° (SSW) 1,764 4.0 -34.0°
Drops below altitude 10° 19:51:49 10° 182° (S) 2,483 5.1 -33.6°
Sets 19:54:39 0° 170° (S) 3,424 6.1 -33.3°
